Location: Roland
(31.1349°N, 85.4372°W)
Time: 04:33:07
(UTC+00:00)

Courier 1B - Pass Details

Date: 21 April 2021
Orbit: 962 x 1209 km, 28.3° (Epoch: 07 May)

Event Time Altitude Azimuth Distance (km) Brightness Sun altitude
Rises 00:33:03 0° 264° (W) 3,656 12.0 -4.8°
Reaches altitude 10° 00:36:53 10° 243° (WSW) 2,735 10.6 -5.6°
Maximum altitude 00:40:32 15° 209° (SSW) 2,396 9.7 -6.3°
Drops below altitude 10° 00:44:16 10° 175° (S) 2,810 9.7 -7.1°
Sets 00:48:18 0° 154° (SSE) 3,814 10.2 -7.9°
